Terug naar catalogus

IRIDIUM 150

ActiefCommunicatiePO
NORAD 43257·PAYLOAD·🇺🇸 United States

Gelanceerd Mar 30, 2018 vanaf Vandenberg Space Force Base

Loading…

Volgende Passages (komende 24 uur)

TLE

VersSource: CelesTrak SupGP

Epoch: Sep 14, 2026, 21:24 UTC

1 43257C 18030J   26257.89201389  .00002773  00000+0  99139-3 0  2574
2 43257  86.3913 252.9421 0002342  89.3775  22.0183 14.34215275    19

Volg IRIDIUM 150 in realtime met AllMySat

Download on the App Store